[[{"header":{"parameterUnit":"m.s-1","parameterCategory":1,"la1":30.2992,"la2":30.254,"lo1":-89.0895,"lo2":-89.0443,"dy":0.0025,"dx":0.0025,"nx":19,"ny":19,"refTime":"2026-04-03T09:00:00:Z","depth":0,"parameterNumber":2,"parameterNumberName":"U-component_of_WINDS"},"data":[0,0,0,-2.1106,-2.1105,-2.1055,-2.1055,-2.1,-2.1,0,0,0,0,0,0,0,0,0,0,0,-2.1129,-2.1129,-2.1106,-2.1105,-2.1055,-2.1055,-2.1,-2.1,0,0,0,0,0,0,0,0,0,0,0,-2.1129,-2.1129,-2.1129,-2.1105,-2.1055,-2.1055,-2.1001,-2.1035,0,0,0,0,0,0,0,0,0,0,-2.1082,-2.1111,-2.1129,-2.1129,-2.1105,-2.1055,-2.1055,-2.1036,-2.1033,-2.1028,0,-2.1028,0,-2.1013,-2.0997,-2.0997,0,0,0,-2.1099,-2.1114,-2.1093,-2.1129,-2.1105,-2.1055,-2.1076,-2.1034,-2.103,-2.1023,-2.1027,-2.1024,-2.1012,-2.0997,-2.0997,-2.0992,-2.0993,0,0,-2.1102,-2.1124,-2.1096,-2.1091,-2.1101,-2.1078,-2.1074,-2.1031,-2.1036,-2.1027,-2.1023,-2.1011,-2.0997,-2.0996,-2.0992,-2.0992,0,0,0,-2.1114,-2.1127,-2.1106,-2.1094,-2.1084,-2.1076,-2.1073,-2.1038,-2.103,-2.1022,-2.1011,-2.0996,-2.0996,-2.0992,-2.0992,-2.1026,0,0,0,-2.1116,-2.1134,-2.1108,-2.1121,-2.1085,-2.1061,-2.1081,-2.1033,-2.1027,-2.1011,-2.0996,-2.0995,-2.0991,-2.0992,-2.1024,-2.1038,0,0,0,-2.113,-2.1135,-2.1131,-2.1122,-2.1102,-2.1061,-2.105,-2.1031,-2.102,-2.0997,-2.0995,-2.0991,-2.0992,-2.1023,-2.1036,-2.1042,0,0,0,-2.1151,-2.1163,-2.1132,-2.1139,-2.1102,-2.1083,-2.105,-2.1034,-2.1018,-2.0996,-2.0991,-2.0992,-2.1022,-2.1034,-2.1041,-2.1051,-2.1058,0,0,-2.1178,-2.1167,-2.1169,-2.114,-2.1131,-2.1088,-2.1084,-2.1049,-2.1026,-2.1004,-2.1004,-2.1025,-2.1036,-2.1042,-2.1088,-2.1093,0,0,0,-2.1185,-2.1187,-2.118,-2.1166,-2.1139,-2.1116,-2.1078,-2.1064,-2.1045,-2.102,-2.1028,-2.1034,-2.1037,-2.1041,-2.1045,-2.1045,-2.0995,-2.0995,-2.0995,-2.1256,-2.1225,-2.1226,-2.1189,-2.1175,-2.1135,-2.112,-2.1094,-2.1069,-2.1071,-2.1065,-2.1096,-2.1102,-2.1105,-2.1105,-2.1068,-2.1068,-2.1068,-2.1068,-2.1291,-2.1288,-2.1251,-2.1239,-2.1206,-2.1195,-2.1155,-2.1137,-2.112,-2.11,-2.11,-2.108,-2.1112,-2.111,-2.107,-2.107,-2.107,-2.107,-2.1069,-2.1333,-2.1326,-2.1309,-2.1282,-2.1265,-2.1226,-2.1211,-2.1182,-2.1154,-2.1154,-2.1142,-2.1142,-2.1136,-2.1151,-2.1151,-2.1151,-2.1151,-2.1151,-2.1151,-2.1383,-2.1362,-2.1354,-2.1324,-2.1309,-2.1285,-2.1242,-2.1226,-2.1201,-2.118,-2.118,-2.1152,-2.1121,-2.1113,-2.1153,-2.1152,-2.1152,-2.1152,-2.1152,-2.143,-2.1414,-2.1401,-2.1386,-2.1346,-2.1329,-2.129,-2.126,-2.1242,-2.1235,-2.1206,-2.1188,-2.1175,-2.1171,-2.1164,-2.1214,-2.1214,-2.1214,-2.1214,-2.1464,-2.1454,-2.1433,-2.141,-2.1384,-2.1347,-2.133,-2.1296,-2.1258,-2.1244,-2.1232,-2.1221,-2.1218,-2.1206,-2.1201,-2.1194,-2.1251,-2.1251,-2.1251,-2.149,-2.1475,-2.1469,-2.1431,-2.1396,-2.1367,-2.1349,-2.1323,-2.1276,-2.1252,-2.1232,-2.123,-2.1212,-2.1207,-2.1184,-2.1178,-2.1164,0,0]},{"header":{"parameterUnit":"m.s-1","parameterCategory":1,"la1":30.2992,"la2":30.254,"lo1":-89.0895,"lo2":-89.0443,"dy":0.0025,"dx":0.0025,"nx":19,"ny":19,"refTime":"2026-04-03T09:00:00:Z","depth":0,"parameterNumber":3,"parameterNumberName":"V-component_of_WINDS"},"data":[0,0,0,3.9795,3.98,4.003,4.0031,4.0327,4.0329,0,0,0,0,0,0,0,0,0,0,0,3.9724,3.9726,3.9795,3.98,4.003,4.0031,4.0326,4.0329,0,0,0,0,0,0,0,0,0,0,0,3.9723,3.9725,3.9728,3.9801,4.003,4.0031,4.0326,4.0152,0,0,0,0,0,0,0,0,0,0,3.9929,3.9859,3.9725,3.9728,3.9803,4.003,4.0032,4.0144,4.0163,4.0222,0,4.027,0,4.0304,4.0349,4.035,0,0,0,3.9803,3.9843,3.9908,3.9728,3.9805,4.003,3.9927,4.0155,4.0176,4.0247,4.0274,4.0285,4.0309,4.0351,4.0352,4.0675,4.0676,0,0,3.9791,3.9764,3.9893,3.9922,3.9883,3.992,3.9935,4.0168,4.0197,4.0275,4.0292,4.0314,4.0353,4.0355,4.0674,4.0676,0,0,0,3.9752,3.9755,3.9814,3.991,3.9951,3.9927,3.9943,4.0187,4.0208,4.0295,4.0317,4.0354,4.0358,4.0672,4.0674,4.0718,0,0,0,3.9745,3.9733,3.9809,3.9795,3.9946,4.0071,3.9957,4.0192,4.0219,4.0316,4.0354,4.0361,4.0671,4.0673,4.0713,4.0744,0,0,0,3.971,3.9729,3.9761,3.9793,3.9891,4.0068,4.0102,4.0198,4.0232,4.035,4.0362,4.067,4.0673,4.071,4.0737,4.0823,0,0,0,3.9666,3.9795,3.9761,3.9915,3.9889,4.0091,4.0101,4.0254,4.036,4.0356,4.0671,4.0674,4.0708,4.0733,4.0819,4.0892,4.0919,0,0,3.9815,3.9812,3.9905,3.9881,4.0083,4.0058,4.0269,4.0391,4.0427,4.0591,4.06,4.0715,4.0737,4.0822,4.1078,4.1099,0,0,0,3.9944,4.001,4.0069,4.0168,4.0264,4.0351,4.0443,4.049,4.063,4.0505,4.0769,4.0783,4.0834,4.0871,4.0889,4.0937,4.0689,4.0689,4.0689,4.0118,4.0156,4.0313,4.038,4.0477,4.0572,4.0656,4.0735,4.0745,4.0807,4.0857,4.1007,4.1049,4.1062,4.1111,4.0897,4.0897,4.0897,4.0897,4.0341,4.0443,4.0455,4.0611,4.0653,4.0786,4.0885,4.0889,4.1022,4.0972,4.1019,4.0964,4.1085,4.113,4.0901,4.09,4.09,4.0899,4.0899,4.0462,4.0518,4.057,4.072,4.0832,4.0896,4.1023,4.1056,4.1088,4.1135,4.1194,4.1193,4.1199,4.116,4.1161,4.1161,4.1162,4.1162,4.1162,4.0567,4.0625,4.0727,4.0841,4.0911,4.1007,4.1107,4.1178,4.1265,4.128,4.128,4.1287,4.1088,4.1039,4.1171,4.1169,4.1168,4.1167,4.1167,4.0784,4.074,4.0897,4.0967,4.1107,4.1218,4.1258,4.14,4.1463,4.1526,4.1524,4.137,4.137,4.1356,4.1316,4.1512,4.1512,4.1512,4.1512,4.0887,4.089,4.106,4.1171,4.1283,4.1336,4.1517,4.1597,4.1674,4.1717,4.1693,4.1641,4.1625,4.1636,4.1615,4.1579,4.1837,4.1837,4.1838,4.1025,4.104,4.1187,4.1258,4.1371,4.1468,4.1641,4.177,4.1848,4.1852,4.1752,4.1738,4.1656,4.1626,4.1629,4.1596,4.1529,0,0]}]]